[[{"header":{"parameterUnit":"m.s-1","parameterCategory":1,"la1":30.2991,"la2":30.254,"lo1":-89.0895,"lo2":-89.0444,"dy":0.0017,"dx":0.0017,"nx":28,"ny":28,"refTime":"2024-07-15T09:00:00:Z","depth":0,"parameterNumber":2,"parameterNumberName":"U-component_of_WINDS"},"data":[0,0,0,0,0,0,0,0,0,0,0,0,0,0,0,0,0,0,0,0,0,0,0,0,0,0,0,0,0,0,0,0,0,0,0,0,0,0,0,0,0,0,0,0,0,0,0,0,0,0,0,0,0,0,0,0,0,0,3.4899,3.49,0,3.5031,3.5032,3.5034,3.4999,3.4997,3.4994,3.4992,3.5127,3.5133,3.5139,0,0,0,0,0,0,0,0,0,0,0,0,0,3.4616,3.4621,3.4899,3.49,3.4902,3.5031,3.5032,3.5034,3.5,3.4997,3.4993,3.499,3.5125,3.5132,3.5139,0,0,0,0,0,0,0,0,0,0,0,0,0,3.4742,3.4623,3.4899,3.49,3.4902,3.503,3.5032,3.5035,3.5,3.4996,3.4993,3.4989,3.5123,3.5131,3.514,3.5275,0,0,3.5168,3.5172,0,0,0,0,0,0,0,0,3.4735,3.4753,3.4898,3.4901,3.4902,3.4995,3.4982,3.5115,3.5001,3.4963,3.4991,3.4987,3.5086,3.5098,3.5131,3.5281,3.5287,3.5169,3.5174,3.5178,3.5181,0,0,0,0,0,0,0,3.4726,3.4747,3.4951,3.4901,3.4903,3.4894,3.4908,3.5007,3.5045,3.4966,3.4964,3.498,3.5086,3.5123,3.5134,3.5289,3.5169,3.5177,3.5182,3.5186,3.5553,3.5558,0,0,0,0,0,0,3.4716,3.474,3.4947,3.4955,3.4807,3.4902,3.4918,3.4969,3.5044,3.5051,3.4983,3.4978,3.5109,3.5124,3.5139,3.5299,3.5178,3.5187,3.5192,3.5549,3.5554,3.5559,0,0,0,0,0,0,3.471,3.4735,3.4942,3.4847,3.4872,3.4912,3.4969,3.4974,3.501,3.5057,3.5063,3.5013,3.5107,3.5126,3.5241,3.5304,3.5191,3.5199,3.5544,3.5551,3.5557,3.5623,0,0,0,0,0,0,3.4702,3.4733,3.4785,3.4848,3.4878,3.5042,3.4973,3.4979,3.5026,3.502,3.5087,3.5094,3.5105,3.5227,3.525,3.5314,3.5206,3.5539,3.5547,3.5555,3.5615,3.5631,3.5644,0,0,0,0,0,3.4692,3.4799,3.4788,3.4813,3.4944,3.5046,3.5062,3.5073,3.5031,3.5083,3.5113,3.5092,3.5293,3.5239,3.5264,3.5332,3.5535,3.5545,3.5554,3.5609,3.5628,3.5644,0,0,0,0,0,0,3.4743,3.4807,3.4796,3.4926,3.4981,3.504,3.5106,3.5093,3.516,3.5152,3.5162,3.5178,3.5294,3.5325,3.5264,3.5465,3.5408,3.5423,3.5441,3.5459,3.5473,3.5463,3.5214,0,0,0,0,0,3.4769,3.4847,3.4899,3.5009,3.5037,3.5067,3.5112,3.5115,3.5171,3.5194,3.5233,3.5288,3.5364,3.5413,3.5486,3.562,3.5632,3.5678,3.5693,3.5704,3.5717,3.5788,3.5808,3.5591,3.5591,3.5591,0,0,3.4825,3.4869,3.4918,3.502,3.5063,3.5142,3.5086,3.5173,3.5232,3.5208,3.5317,3.5348,3.541,3.5534,3.5591,3.5564,3.578,3.5717,3.5726,3.5732,3.58,3.582,3.5838,3.5598,3.5596,3.5595,0,0,3.4965,3.5008,3.5103,3.5146,3.5211,3.523,3.5252,3.5313,3.5332,3.5442,3.5425,3.5495,3.5625,3.567,3.571,3.5865,3.5848,3.5889,3.5964,3.6032,3.6049,3.6064,3.6118,3.6137,3.5901,3.5902,3.5902,0,3.5026,3.5145,3.5154,3.5242,3.5286,3.5267,3.5363,3.5404,3.549,3.552,3.5489,3.565,3.5691,3.5824,3.5862,3.5896,3.5921,3.5881,3.6046,3.6061,3.6076,3.6127,3.6147,3.5906,3.5905,3.5905,3.5905,0,3.5215,3.5298,3.5367,3.5448,3.5501,3.5592,3.5614,3.5666,3.5664,3.5686,3.5798,3.5846,3.5927,3.5959,3.5959,3.6091,3.6072,3.6043,3.5986,3.6101,3.6148,3.6168,3.5912,3.5911,3.5909,3.5908,0,0,3.5392,3.5476,3.5501,3.5536,3.5605,3.5669,3.5759,3.5837,3.5881,3.594,3.6014,3.6124,3.6097,3.6142,3.6147,3.6207,3.6324,3.6171,3.6172,3.6196,3.6471,3.6491,3.6513,3.6314,3.6318,3.6321,3.6465,0,3.5537,3.5695,3.5704,3.5847,3.5922,3.5904,3.5982,3.6032,3.6055,3.6122,3.6147,3.6223,3.6183,3.621,3.6269,3.6298,3.6379,3.6288,3.6382,3.6385,3.6365,3.6539,3.6561,3.6695,3.6484,3.6487,3.649,0,3.5728,3.5791,3.5941,3.5997,3.6029,3.6099,3.617,3.6235,3.629,3.6302,3.6352,3.6347,3.6438,3.6378,3.6502,3.6439,3.6478,3.6498,3.6503,3.6511,3.6443,3.6549,3.6738,3.6757,3.652,3.6517,3.6515,0,3.5839,3.5962,3.6067,3.6098,3.6167,3.6216,3.6247,3.6299,3.6345,3.6407,3.6436,3.6509,3.6548,3.6604,3.6618,3.6573,3.6741,3.6683,3.6752,3.6752,3.6787,3.6785,3.6983,3.6816,3.6816,3.6815,3.6815,0,3.5999,3.6091,3.6117,3.6182,3.6283,3.6293,3.6393,3.6421,3.6467,3.6536,3.6525,3.659,3.6606,3.6673,3.6685,3.6785,3.6803,3.6814,3.6816,3.6814,3.6813,3.6839,3.6829,3.6821,3.6819,3.6818,3.6817,0,3.614,3.6162,3.6274,3.633,3.6345,3.6418,3.6465,3.6526,3.6546,3.6633,3.6654,3.6686,3.6765,3.6785,3.6879,3.6887,3.7004,3.6998,3.6985,3.6984,3.7051,3.7044,3.7272,3.7301,3.7117,3.7118,3.712,0,3.624,3.631,3.6372,3.6417,3.645,3.6523,3.6568,3.658,3.6629,3.6696,3.6749,3.6826,3.6888,3.7014,3.7046,3.7117,3.7111,3.7186,3.7122,3.7117,3.711,3.7104,3.711,3.7198,3.72,3.7201,3.7203,0,3.6415,3.6421,3.6488,3.6558,3.6613,3.6669,3.6722,3.6759,3.6778,3.6833,3.6912,3.6961,3.7056,3.7131,3.7203,3.7234,3.7221,3.7223,3.7242,3.724,3.7229,3.7233,3.7016,3.7217,3.7216,3.7215,3.7214,3.7213,3.6537,3.6597,3.6649,3.6723,3.6764,3.6814,3.6873,3.6901,3.6967,3.7045,3.7048,3.7134,3.7186,3.728,3.7315,3.7382,3.7359,3.7388,3.7395,3.7402,3.7406,3.7219,3.7396,3.7395,3.7395,3.7395,3.7394,0,3.6709,3.6741,3.6809,3.6883,3.6941,3.6923,3.6981,3.703,3.7106,3.7155,3.7216,3.7306,3.7379,3.7416,3.7488,3.7534,3.753,3.7553,3.7549,3.7555,3.7424,3.7399,3.7555,3.7555,3.7555,3.7555,3.7555,3.7555,3.6805,3.6905,3.6917,3.7037,3.7069,3.7152,3.7186,3.7231,3.7271,3.7372,3.7432,3.7455,3.7499,3.7574,3.764,3.7648,3.7675,3.77,3.7705,3.7581,3.7565,3.7549,3.7526,3.7706,3.7706,3.7831,3.7832,3.7833]},{"header":{"parameterUnit":"m.s-1","parameterCategory":1,"la1":30.2991,"la2":30.254,"lo1":-89.0895,"lo2":-89.0444,"dy":0.0017,"dx":0.0017,"nx":28,"ny":28,"refTime":"2024-07-15T09:00:00:Z","depth":0,"parameterNumber":3,"parameterNumberName":"V-component_of_WINDS"},"data":[0,0,0,0,0,0,0,0,0,0,0,0,0,0,0,0,0,0,0,0,0,0,0,0,0,0,0,0,0,0,0,0,0,0,0,0,0,0,0,0,0,0,0,0,0,0,0,0,0,0,0,0,0,0,0,0,0,0,-0.1505,-0.1506,0,-0.1524,-0.1524,-0.1524,-0.157,-0.1571,-0.1572,-0.1572,-0.159,-0.1589,-0.1589,0,0,0,0,0,0,0,0,0,0,0,0,0,-0.1509,-0.1509,-0.1505,-0.1506,-0.1506,-0.1524,-0.1524,-0.1524,-0.1569,-0.1571,-0.1572,-0.1573,-0.159,-0.1589,-0.1589,0,0,0,0,0,0,0,0,0,0,0,0,0,-0.1515,-0.1509,-0.1505,-0.1531,-0.1533,-0.1524,-0.1524,-0.1524,-0.1569,-0.1571,-0.1572,-0.1573,-0.159,-0.159,-0.1589,-0.1556,0,0,-0.1587,-0.1587,0,0,0,0,0,0,0,0,-0.1515,-0.1515,-0.1527,-0.1529,-0.1532,-0.1546,-0.1532,-0.1535,-0.1569,-0.1555,-0.1572,-0.1574,-0.1574,-0.1575,-0.1575,-0.1557,-0.1558,-0.1587,-0.1586,-0.1586,-0.1586,0,0,0,0,0,0,0,-0.1514,-0.1515,-0.1513,-0.1527,-0.153,-0.1541,-0.1543,-0.1533,-0.1556,-0.1557,-0.156,-0.1562,-0.1576,-0.1575,-0.1576,-0.1558,-0.1587,-0.1586,-0.1586,-0.1586,-0.1515,-0.1514,0,0,0,0,0,0,-0.1511,-0.1514,-0.1512,-0.1513,-0.1527,-0.154,-0.1543,-0.154,-0.1557,-0.1561,-0.156,-0.1564,-0.1576,-0.1576,-0.1577,-0.154,-0.1586,-0.1586,-0.1585,-0.1516,-0.1515,-0.1513,0,0,0,0,0,0,-0.151,-0.151,-0.1511,-0.1515,-0.1516,-0.1538,-0.1535,-0.1539,-0.1539,-0.156,-0.1564,-0.1556,-0.1577,-0.1577,-0.1561,-0.1541,-0.1585,-0.1585,-0.1518,-0.1516,-0.1514,-0.1465,0,0,0,0,0,0,-0.151,-0.151,-0.1497,-0.1514,-0.1515,-0.1496,-0.1534,-0.1539,-0.1538,-0.1543,-0.1556,-0.156,-0.1578,-0.1562,-0.1561,-0.1541,-0.1584,-0.152,-0.1517,-0.1515,-0.1468,-0.1461,-0.1455,0,0,0,0,0,-0.151,-0.1482,-0.1496,-0.1496,-0.15,-0.1494,-0.1495,-0.1517,-0.1537,-0.1524,-0.1538,-0.156,-0.1544,-0.156,-0.1559,-0.1538,-0.1521,-0.1518,-0.1515,-0.1471,-0.1463,-0.1455,0,0,0,0,0,0,-0.1462,-0.1485,-0.1501,-0.1477,-0.1484,-0.1502,-0.1487,-0.1507,-0.1507,-0.1511,-0.1538,-0.1541,-0.1521,-0.1528,-0.1546,-0.1508,-0.1536,-0.1532,-0.1504,-0.1496,-0.1489,-0.1487,-0.1584,0,0,0,0,0,-0.1448,-0.1442,-0.1462,-0.144,-0.1442,-0.1464,-0.1462,-0.1479,-0.1486,-0.1489,-0.1501,-0.1506,-0.1503,-0.15,-0.1498,-0.147,-0.1474,-0.1456,-0.1449,-0.1444,-0.144,-0.1426,-0.1419,-0.1502,-0.1502,-0.1502,0,0,-0.142,-0.1432,-0.1426,-0.143,-0.1437,-0.143,-0.1466,-0.1456,-0.1451,-0.1487,-0.1472,-0.1482,-0.149,-0.1468,-0.1459,-0.1474,-0.1418,-0.144,-0.1435,-0.1434,-0.1422,-0.1414,-0.1407,-0.15,-0.15,-0.1501,0,0,-0.1366,-0.1374,-0.1356,-0.1363,-0.1373,-0.1388,-0.1384,-0.14,-0.1407,-0.1393,-0.1421,-0.1415,-0.1408,-0.1413,-0.1415,-0.1364,-0.1384,-0.1363,-0.1327,-0.1314,-0.1307,-0.1302,-0.1283,-0.1276,-0.1359,-0.1359,-0.1359,0,-0.1329,-0.1319,-0.1345,-0.1334,-0.1335,-0.1368,-0.1351,-0.1356,-0.1364,-0.1364,-0.1381,-0.1374,-0.1382,-0.1362,-0.1349,-0.135,-0.1346,-0.136,-0.1306,-0.1301,-0.1296,-0.1279,-0.1272,-0.1356,-0.1356,-0.1357,-0.1357,0,-0.1274,-0.1267,-0.1252,-0.126,-0.1259,-0.1245,-0.1268,-0.1265,-0.1282,-0.1295,-0.1281,-0.1292,-0.1293,-0.129,-0.1306,-0.1272,-0.1281,-0.1302,-0.133,-0.1285,-0.1269,-0.1263,-0.1352,-0.1353,-0.1354,-0.1354,0,0,-0.1187,-0.1211,-0.1205,-0.121,-0.1224,-0.1219,-0.1207,-0.1208,-0.1205,-0.121,-0.12,-0.1194,-0.1214,-0.1216,-0.1233,-0.1222,-0.1181,-0.1244,-0.1244,-0.1231,-0.1144,-0.1128,-0.112,-0.1195,-0.1194,-0.1193,-0.1143,0,-0.1136,-0.1116,-0.1139,-0.1114,-0.1108,-0.1141,-0.113,-0.1137,-0.115,-0.1147,-0.1161,-0.1156,-0.1182,-0.1184,-0.1174,-0.1187,-0.1163,-0.1192,-0.1185,-0.1185,-0.1181,-0.1112,-0.1094,-0.1047,-0.1137,-0.1136,-0.1136,0,-0.1072,-0.1075,-0.1049,-0.1067,-0.1065,-0.1055,-0.1059,-0.1055,-0.1065,-0.1075,-0.1078,-0.1099,-0.1088,-0.1117,-0.1103,-0.1121,-0.1121,-0.1127,-0.1126,-0.1125,-0.1157,-0.1108,-0.1033,-0.1025,-0.1126,-0.1127,-0.1128,0,-0.101,-0.1009,-0.0993,-0.0996,-0.1016,-0.1008,-0.1016,-0.1027,-0.1027,-0.1031,-0.1031,-0.1033,-0.1034,-0.1035,-0.1056,-0.1076,-0.1039,-0.107,-0.1047,-0.1046,-0.1037,-0.1037,-0.0959,-0.1037,-0.1037,-0.1038,-0.1038,0,-0.0949,-0.0932,-0.0966,-0.0956,-0.0939,-0.0966,-0.0948,-0.0959,-0.0969,-0.0962,-0.0991,-0.0984,-0.1014,-0.101,-0.1027,-0.1012,-0.1012,-0.102,-0.1024,-0.1017,-0.1016,-0.1016,-0.1019,-0.1036,-0.1036,-0.1037,-0.1037,0,-0.0877,-0.0899,-0.0885,-0.0905,-0.091,-0.0896,-0.0914,-0.0906,-0.0921,-0.0912,-0.0912,-0.0935,-0.0932,-0.0954,-0.0955,-0.0967,-0.0944,-0.0955,-0.0941,-0.0944,-0.0919,-0.0921,-0.0838,-0.0828,-0.0914,-0.0913,-0.0912,0,-0.0836,-0.0824,-0.0844,-0.0842,-0.0848,-0.0844,-0.0845,-0.0872,-0.0871,-0.0882,-0.0873,-0.0873,-0.0874,-0.0868,-0.0885,-0.0886,-0.0897,-0.0867,-0.0897,-0.089,-0.0896,-0.0896,-0.0895,-0.0861,-0.086,-0.0859,-0.0858,0,-0.0761,-0.0773,-0.0773,-0.0776,-0.0776,-0.078,-0.0786,-0.0783,-0.0812,-0.081,-0.0808,-0.0809,-0.0811,-0.081,-0.0815,-0.0823,-0.0845,-0.0849,-0.0844,-0.0835,-0.0827,-0.0831,-0.0923,-0.085,-0.0851,-0.0852,-0.0852,-0.0852,-0.0703,-0.0694,-0.0707,-0.0706,-0.0713,-0.0719,-0.0712,-0.0727,-0.0726,-0.073,-0.0747,-0.0741,-0.0753,-0.0762,-0.0768,-0.0765,-0.0779,-0.0771,-0.0769,-0.0766,-0.0762,-0.0829,-0.0766,-0.0766,-0.0766,-0.0766,-0.0767,0,-0.0629,-0.0639,-0.0638,-0.0646,-0.0645,-0.0668,-0.0676,-0.0674,-0.0669,-0.0678,-0.0679,-0.0677,-0.0677,-0.0695,-0.0697,-0.0691,-0.0701,-0.069,-0.0691,-0.0692,-0.0749,-0.0753,-0.0682,-0.0682,-0.0682,-0.0682,-0.0682,-0.0682,-0.059,-0.0577,-0.059,-0.0581,-0.0591,-0.0587,-0.059,-0.0595,-0.0602,-0.0599,-0.0599,-0.0611,-0.0624,-0.0627,-0.0628,-0.0634,-0.0633,-0.0619,-0.0627,-0.068,-0.0688,-0.0696,-0.07,-0.0618,-0.0618,-0.057,-0.057,-0.057]}]]